Tracking 28790 objects as of 19-Apr-2024
HD Live streaming from Space Station
objects crossing your sky now

FENGYUN 1C DEB

Track FENGYUN 1C DEB now!
10-day predictions


NORAD ID: 38726
Int'l Code: 1999-025ETT
Perigee: 718.3 km
Apogee: 799.1 km
Inclination: 99.2 °
Period: 99.9 minutes
Semi major axis: 7129 km
RCS: 0.003 m2 (small)
Launch date: May 10, 1999
Source: People's Republic of China (PRC)
Launch site: Taiyaun Space Center, China (TSC)

Note: This is SATELLITE DEBRIS
Your satellite tracking list
Your tracking list is empty




NASA's NSSDC Master Catalog

Two Line Element Set (TLE):
1 38726U 99025ETT 24109.65778487  .00025180  00000-0  75008-2 0  9997
2 38726  99.1539  56.8400 0056614 195.2178 164.7309 14.42104649610060
Source of the keplerian elements: AFSPC